AirNav   ProFlight Series 2 Aviation Headset
 
 1092 users online  

7PS6 Allegheny Valley Hospital Heliport
Natrona Heights, Pennsylvania, USA

GOING TO NATRONA HEIGHTS?


FAA INFORMATION EFFECTIVE 18 JUNE 2020

Location

FAA Identifier: 7PS6
Lat/Long: 40-37-08.8800N 079-44-16.2600W
40-37.148000N 079-44.271000W
40.6191333,-79.7378500
(estimated)
Elevation: 965 ft. / 294 m (estimated)
Variation: 08W (1985)
From city: 1 mile E of NATRONA HEIGHTS, PA
Time zone: UTC -4 (UTC -5 during Standard Time)
Zip code: 15065

Heliport Operations

Heliport use: Private use, MEDICAL USE.
Activation date: 12/1987
Control tower: no
ARTCC: CLEVELAND CENTER
FSS: ALTOONA FLIGHT SERVICE STATION
Attendance: UNATNDD
Segmented circle: no

Heliport Communications

WX AWOS-3PT at BTP (14 nm NW): 121.450 (724-586-6434)
WX AWOS-A at 42PN (16 nm SW): PHONE 412-442-2213
WX ASOS at AGC (18 nm SW): 120.55 (412-466-8968)

Nearby radio navigation aids

VOR radial/distance  VOR name  Freq  Var
AGCr043/24.7ALLEGHENY VOR/DME110.0009W
EWCr128/24.8ELLWOOD CITY VOR/DME115.8008W
CIPr208/34.1CLARION VOR/DME112.9006W

 
NDB name  Hdg/Dist  Freq  Var  ID
CASTLE137/39.227209WUCP ..- -.-. .--.

Heliport Services

Runway Information

Helipad H1

Dimensions: 20 x 20 ft. / 6 x 6 m
Surface: concrete
Latitude: 40-37.148000N
Longitude: 079-44.271000W
Elevation: 965.0 ft.
Traffic pattern: leftleft

Heliport Ownership and Management from official FAA records

Ownership: Privately-owned
Owner: ALLEGHENY VALLEY HOSPITAL
1301 CARLISLE STREET
NATRONA HEIGHTS, PA 15065
Phone 412-226-7356
Manager: LAWRENCE LEJEUNE
1301 CARLISLE STREET
NATRONA HEIGHTS, PA 15065
Phone (412) 226-7499

Additional Remarks

FOR CD CTC PITTSBURGH APCH AT 412-472-5591

Instrument Procedures

There are no published instrument procedures at 7PS6.

Some nearby airports with instrument procedures:

6P7 - McVille Airport (9 nm NE)
KBTP - Pittsburgh/Butler Regional Airport (14 nm NW)
KAGC - Allegheny County Airport (18 nm SW)
KPJC - Zelienople Municipal Airport (22 nm NW)
KPIT - Pittsburgh International Airport (24 nm W)
 
Loc | Ops | Rwys | IFR | FBO | Links
Com | Nav | Svcs | Stats | Notes
Area around 7PS6 (Allegheny Valley Hospital Heliport)
 
Road maps at: MapQuest Bing Google
 
Aerial photo
No photo
 
Sectional chart

 
Airport distance calculator
Flying to Allegheny Valley Hospital Heliport? Find the distance to fly.

From to 7PS6

Sunrise and sunset
Times for 06-Jul-2020
 Local
(UTC-4)
 Zulu
(UTC)
Morning civil twilight05:2309:23
Sunrise05:5609:56
Sunset20:5100:51
Evening civil twilight21:2401:24

Current date and time
Zulu (UTC)  06-Jul-2020 22:45:51
Local (UTC-4)  06-Jul-2020 18:45:51
 
METAR
KBTP 
13nm NW 
062156Z AUTO 30004KT 10SM CLR 32/14 A3002 RMK AO2 SLP159 T03220144 PNO $
KAGC 
18nm SW 
062153Z VRB05KT 10SM CLR 34/14 A2999 RMK AO2 SLP147 T03390139
KP53 
25nm S 
062156Z AUTO 19008KT 21/19 A3001 RMK AO1 SLP160 P0016 T02060189
KPIT 
25nm W 
062151Z 34008KT 10SM FEW048 SCT250 33/12 A3000 RMK AO2 SLP154 T03330122
KLBE 
26nm SE 
062147Z 28007KT 10SM FEW060 35/12 A2999
TAF
KAGC 
18nm SW 
061737Z 0618/0718 26004KT P6SM SCT250 FM070000 00000KT P6SM SKC FM071700 20004KT P6SM SCT100
NOTAMs
Click for the latest NOTAMs
NOTAMs are issued by the DoD/FAA and will open in a separate window not controlled by AirNav.

 

 
 

Would you like to see your business listed on this page?

 If your business provides an interesting product or service to pilots, flight crews, aircraft, or users of the Allegheny Valley Hospital Heliport, you should consider listing it here.  To start the listing process, click on the button below
 
Add a business
 

Other Pages about Allegheny Valley Hospital Heliport

Update a link
 
Copyright © AirNav, LLC. All rights reserved. Privacy Policy  Contact